sat.trackr.live / text

‹ back to catalog

KANOPUS-V 3

NORAD 43180 · 2018-014A

PAYLOAD ACTIVE UNKNOWN

§ Identity

Operator
Country
CIS
Launch date
2018-02-01
Launch site
VOSTO
Launch vehicle
Mass (kg)
RCS (m²)

External: N2YO · Heavens-Above · Gunter

§ Orbital elements

Epoch: 2026-09-20T04:03:08.430912Z

Period
94.59 min
Inclination
97.3470°
Eccentricity
0.0001797
Mean motion
15.22378725 rev/d
Perigee alt
497.4 km
Apogee alt
499.9 km
Semi-major
6,876.8 km
B*
6.9883e-5
RAAN
166.6694°
Arg perigee
89.2238°
Mean anomaly
270.9205°
Rev number
47,917

§ Raw data

KANOPUS-V 31 43180U 18014A   26263.16884758  .00001545  00000+0  69883-4 0  99982 43180  97.3470 166.6694 0001797  89.2238 270.9205 15.22378725479177

JSON: /api/v1/satellites/43180 · /tle

For live sub-satellite position, see the globe view (requires WebGL).

§ Visibility from observer

Set your observer location to see the next 7 days of passes ≥ 10°. The values pass through the URL so the page stays shareable.

No JS? Fill the form by hand. The geolocation button needs JavaScript.